sat.trackr.live / text

‹ back to catalog

STARLINK-4739

NORAD 53792 · 2022-111V

PAYLOAD ACTIVE UNKNOWN

§ Identity

Operator
Country
US
Launch date
2022-09-11
Launch site
AFETR
Launch vehicle
Mass (kg)
RCS (m²)

Purposes: comms

External: N2YO · Heavens-Above · Gunter

§ Orbital elements

Epoch: 2026-05-24T19:36:10.286208Z

Period
95.44 min
Inclination
53.2157°
Eccentricity
0.0001309
Mean motion
15.08839422 rev/d
Perigee alt
538.8 km
Apogee alt
540.7 km
Semi-major
6,917.9 km
B*
3.6189e-5
RAAN
292.7201°
Arg perigee
99.2983°
Mean anomaly
260.8158°
Rev number
20,517

§ Raw data

STARLINK-47391 53792U 22111V   26144.81678572  .00000288  00000+0  36189-4 0  99922 53792  53.2157 292.7201 0001309  99.2983 260.8158 15.08839422205174

JSON: /api/v1/satellites/53792 · /tle

For live sub-satellite position, see the globe view (requires WebGL).

§ Visibility from observer

Set your observer location to see the next 7 days of passes ≥ 10°. The values pass through the URL so the page stays shareable.

No JS? Fill the form by hand. The geolocation button needs JavaScript.